Кровелец

Ukraine / Sumi District     51˚33′00″N   33˚22′58″E
temp.,
°C
wind,
m/s
gust,
m/s
humid.,
%
clouds,
%
prec.,
mm/h
press.,
hPa
HPBL,
m
2 december, wed
wed223:00−2˚e4792100 0.0 1030264
02:00−2˚e5995100 0.1 1030444
05:00−2˚e4997100 0.3 1030447
08:00−4˚ese4993100 0.8 1030422
11:00−3˚ese5793100 0.3 1030554
14:00−3˚se4792100 0.4 1029559
17:00−5˚ese379497 0.0 1029185
20:00−4˚ese499596 0.1 1029340
3 december, thu
thu323:00−4˚ese489699 0.3 1030310
02:00−4˚ese489694 0.4 1029284
05:00−4˚ese489586 0.1 1029277
08:00−4˚ese489690 0.4 1029323
11:00−2˚se589497 0.3 1028418
14:00−1˚se479496 0.4 1028380
17:00−2˚ese3697100 0.1 1027280
20:00−2˚ese479797 0.3 1027241
4 december, fri
fri423:00−1˚se479783 0.0 1027333
02:00−1˚ese479791 0.1 1027233
05:00−1˚ese5897100 0.0 1027242
08:00−2˚ese499793 0.0 1027259
11:00se5999100 0.0 1027454
14:00ese699596 0.0 1027299
17:00se6109486 0.0 1028488
20:00se6109493 0.0 1028503
5 december, sat
sat523:00−1˚ese51094100 0.0 1029365
02:00−1˚ese5995100 0.0 1029344
05:00−1˚ese61095100 0.0 1029422
08:00−1˚ese61094100 0.0 1030440
11:00−1˚se6993100 0.0 1031429
14:00−1˚se5992100 0.0 1031447
17:00−4˚ese5119387 0.0 1032347
20:00−5˚ese5119259 0.0 1033319
6 december, sun
sun623:00−6˚ese511860 0.0 1033300
02:00−7˚ese511850 0.0 1034279
05:00−8˚ese511820 0.0 1034267
08:00−9˚ese612800 0.0 1034270
11:00−6˚ese611750 0.0 1034354
14:00−5˚ese611750 0.0 1033348
17:00−8˚ese613800 0.0 1033299
20:00−8˚ese613820 0.0 1033322